Location: ?
(35.4996°N, 139.3166°E)
Time: 12:52:29
(UTC+00:00)

Cosmos 1633 Rocket - Pass Details

Date: 18 April 2024
Orbit: 604 x 619 km, 82.5° (Epoch: 17 May)

Event Time Altitude Azimuth Distance (km) Brightness Sun altitude
Rises 17:44:40 0° 359° (N) 2,869 7.0 -26.4°
Reaches altitude 10° 17:46:56 10° 4° (N) 1,963 6.1 -26.1°
Maximum altitude 17:51:10 52° 81° (E) 763 3.7 -25.4°
Enters shadow 17:52:34 36° 134° (SE) 966 4.0 -25.2°
